Notices

What's New in latest Release from April 7th, 2021:

- Updated Glossary, including Speed of Maximum Gust, and Total Hourly Precipitation

- Updated national and regional climate services offices contacts and prices information

- Addition of station inventory lists for 1981-2010, 1971-2000, and 1961-1990 Normals.

If you haven't already, please take our survey and provide feedback about our website: https://eccc.sondage-survey.ca/f/LanguageSelection.aspx?s=442ca660-fcf1-47c0-95a9-59707d6fd709

Hourly Data Report for February 05, 2003

TORONTO CITY
ONTARIO

43°40'00.000" N
79°24'00.000" W
112.50 m
6158355
71508
XTO

Download Data

Hourly Data (February 2003)
Hourly Data Report for February 5, 2003
TIME
LST
Temp Definition
°C
Dew Point Definition
°C
Rel Hum Definition
%
Precip. Amount Definition
mm

Wind Dir Definition
10's deg

Wind Spd Definition
km/h
Visibility Definition
km
Stn Press Definition
kPa
Hmdx Definition


Wind Chill Definition


Weather Definition


00:00 -4.9 -10.5 65     0 LegendMM 99.15     LegendNANA
01:00
02:00 -5.2 -10.3 67     0 LegendMM 99.39     LegendNANA
03:00 -5.8 -10.7 68     0 LegendMM 99.50     LegendNANA
04:00 -5.8 -10.3 70     0 LegendMM 99.60     LegendNANA
05:00 -6.0 -11.6 65     0 LegendMM 99.75     LegendNANA
06:00 -6.7 -12.9 61     0 LegendMM 99.87     LegendNANA
07:00 -7.6 -12.9 66     0 LegendMM 99.99     LegendNANA
08:00 -8.1 -13.8 63     0 LegendMM 100.14     LegendNANA
09:00 -7.5 -14.0 60     0 LegendMM 100.25     LegendNANA
10:00 -7.3 -14.5 56     0 LegendMM 100.37     LegendNANA
11:00 -6.0 -14.8 50     0 LegendMM 100.45     LegendNANA
12:00 -5.6 -15.0 47     0 LegendMM 100.50     LegendNANA
13:00 -5.9 -15.0 49     0 LegendMM 100.53     LegendNANA
14:00 -5.7 -13.8 53     0 LegendMM 100.57     LegendNANA
15:00 -5.6 -14.0 52     0 LegendMM 100.64     LegendNANA
16:00 -5.6 -13.7 53     0 LegendMM 100.68     LegendNANA
17:00 -6.1 -11.1 68     0 LegendMM 100.73     LegendNANA
18:00 -6.3 -13.7 56     0 LegendMM 100.78     LegendNANA
19:00 -7.0 -14.4 56     0 LegendMM 100.87     LegendNANA
20:00 -6.6 -14.0 56     0 LegendMM 100.89     LegendNANA
21:00 -6.6 -13.6 57     0 LegendMM 100.91     LegendNANA
22:00 -6.2 -13.2 58     0 LegendMM 100.91     LegendNANA
23:00 -6.2 -12.4 61     0 LegendMM 100.91     LegendNANA

Notes on Data Quality.

Legend

  • E = Estimated
  • M = Missing
  • NA = Not Available*
  • [empty] = Indicates an unobserved value
Date modified: